^^
Saratoga-Weather Station Historical Data
Daily Summary for March 13, 2020 Units:  English    Metric   Both
Daily Weekly Monthly Yearly Custom
  High: Low: Average:
Temperature: 63.3 °F 42.8 °F 52.9 °F
Dew Point: 50.5 °F 29.1 °F 42.3 °F
Humidity: 88% 48% 68%
Wind Speed: 13mph 0mph 2mph
Wind Gust: 17mph - -
Wind- - South
Pressure: 30.2 in 29.9 in -
Precipitation: 0 in    
Historical Graphs
 
 
Tabular Data for March 13, 2020
Time Temperature Dew Point Pressure Wind Wind Speed Wind Gust Humidity Rainfall Rate (Hourly) solar
00:04 53.2 °F 44.1 °F 29.9 in Calm     71% 0 in 0 W/m2
00:09 53.1 °F 44.2 °F 29.9 in Calm   1 mph 72% 0 in 0 W/m2
00:14 52.9 °F 44.1 °F 29.9 in Calm     72% 0 in 0 W/m2
00:19 52.5 °F 43.7 °F 29.9 in Calm     72% 0 in 0 W/m2
00:24 52.5 °F 44.1 °F 29.9 in Calm     73% 0 in 0 W/m2
00:29 52.5 °F 43.7 °F 29.9 in Calm   1 mph 72% 0 in 0 W/m2
00:34 52.9 °F 44.1 °F 29.9 in Calm   2 mph 72% 0 in 0 W/m2
00:39 53.1 °F 44.2 °F 29.9 in South 0.9 mph 1 mph 72% 0 in 0 W/m2
00:44 52.9 °F 44.1 °F 29.9 in Calm   1 mph 72% 0 in 0 W/m2
00:49 52.9 °F 44.1 °F 29.9 in Calm     72% 0 in 0 W/m2
00:54 52.7 °F 43.9 °F 29.9 in South 0.9 mph 1 mph 72% 0 in 0 W/m2
00:59 52.5 °F 44.1 °F 29.9 in Calm     73% 0 in 0 W/m2
01:04 52.3 °F 43.9 °F 29.9 in Calm     73% 0 in 0 W/m2
01:09 52.2 °F 43.7 °F 29.9 in Calm     73% 0 in 0 W/m2
01:14 52.2 °F 44.1 °F 29.9 in Calm     74% 0 in 0 W/m2
01:19 52.2 °F 44.1 °F 29.9 in Calm     74% 0 in 0 W/m2
01:24 52 °F 43.9 °F 29.9 in Calm     74% 0 in 0 W/m2
01:29 52 °F 43.9 °F 29.9 in Calm     74% 0 in 0 W/m2
01:35 52.2 °F 44.1 °F 29.9 in Calm     74% 0 in 0 W/m2
01:40 52.2 °F 44.1 °F 29.9 in Calm   1 mph 74% 0 in 0 W/m2
01:45 52.3 °F 44.2 °F 29.9 in Calm   1 mph 74% 0 in 0 W/m2
01:50 52.3 °F 44.2 °F 29.9 in Calm     74% 0 in 0 W/m2
01:55 52.3 °F 44.2 °F 29.9 in Calm   1 mph 74% 0 in 0 W/m2
02:00 52.2 °F 44.4 °F 29.9 in Calm     75% 0 in 0 W/m2
02:05 52.2 °F 44.4 °F 29.9 in Calm     75% 0 in 0 W/m2
02:10 52.2 °F 44.8 °F 29.9 in South 2 mph 2 mph 76% 0 in 0 W/m2
02:15 52.2 °F 44.8 °F 29.9 in Calm   1 mph 76% 0 in 0 W/m2
02:20 52.2 °F 45.1 °F 29.9 in Calm     77% 0 in 0 W/m2
02:25 52.2 °F 45.1 °F 29.9 in Calm     77% 0 in 0 W/m2
02:30 52.2 °F 45.1 °F 29.9 in SSW 2 mph 2 mph 77% 0 in 0 W/m2
02:35 52.3 °F 45.3 °F 29.9 in SW 0.9 mph 2 mph 77% 0 in 0 W/m2
02:40 52.3 °F 45 °F 29.9 in SW 2 mph 2 mph 76% 0 in 0 W/m2
02:45 52.7 °F 45.3 °F 29.9 in WSW 0.9 mph 1 mph 76% 0 in 0 W/m2
02:50 52.9 °F 45.5 °F 29.9 in Calm     76% 0 in 0 W/m2
02:55 53.1 °F 45.7 °F 29.9 in Calm   1 mph 76% 0 in 0 W/m2
03:00 53.1 °F 45.7 °F 29.9 in Calm   1 mph 76% 0 in 0 W/m2
03:05 53.1 °F 46.4 °F 29.9 in WSW 0.9 mph 1 mph 78% 0 in 0 W/m2
03:10 52.7 °F 46.4 °F 29.9 in West 0.9 mph 1 mph 79% 0 in 0 W/m2
03:15 52.3 °F 46.8 °F 29.9 in SSE 2.9 mph 3 mph 81% 0 in 0 W/m2
03:20 52.2 °F 46.8 °F 29.9 in Calm     82% 0 in 0 W/m2
03:26 52.2 °F 47.1 °F 29.9 in West 2.9 mph 3 mph 83% 0 in 0 W/m2
03:31 51.8 °F 46.8 °F 29.9 in Calm   1 mph 83% 0 in 0 W/m2
03:36 51.6 °F 46.9 °F 29.9 in Calm     84% 0 in 0 W/m2
03:41 51.4 °F 46.8 °F 29.9 in Calm     84% 0 in 0 W/m2
03:46 51.3 °F 46.6 °F 29.9 in Calm     84% 0 in 0 W/m2
03:51 50.9 °F 46.2 °F 29.9 in Calm   1 mph 84% 0 in 0 W/m2
03:56 50.7 °F 46 °F 29.9 in Calm     84% 0 in 0 W/m2
04:01 50.5 °F 45.9 °F 29.9 in Calm   1 mph 84% 0 in 0 W/m2
04:06 50.4 °F 45.7 °F 29.9 in Calm     84% 0 in 0 W/m2
04:11 50.4 °F 46 °F 29.9 in Calm     85% 0 in 0 W/m2
04:16 50.2 °F 45.9 °F 29.9 in Calm     85% 0 in 0 W/m2
04:21 50.2 °F 45.9 °F 29.9 in Calm     85% 0 in 0 W/m2
04:26 49.8 °F 45.5 °F 29.9 in Calm     85% 0 in 0 W/m2
04:31 49.8 °F 45.5 °F 29.9 in Calm     85% 0 in 0 W/m2
04:36 49.6 °F 45.3 °F 29.9 in Calm     85% 0 in 0 W/m2
04:41 49.6 °F 45.7 °F 29.9 in Calm     86% 0 in 0 W/m2
04:46 49.6 °F 45.3 °F 29.9 in Calm     85% 0 in 0 W/m2
04:51 49.5 °F 45.1 °F 29.9 in Calm     85% 0 in 0 W/m2
04:56 49.3 °F 45.3 °F 29.9 in Calm     86% 0 in 0 W/m2
05:01 49.3 °F 45.3 °F 29.9 in Calm     86% 0 in 0 W/m2
05:06 49.1 °F 45.1 °F 29.9 in Calm     86% 0 in 0 W/m2
05:11 48.9 °F 45.1 °F 29.9 in Calm     87% 0 in 0 W/m2
05:16 48.9 °F 45.1 °F 29.9 in Calm     87% 0 in 0 W/m2
05:21 48.7 °F 45 °F 29.9 in Calm     87% 0 in 0 W/m2
05:26 48.7 °F 45 °F 29.9 in Calm     87% 0 in 0 W/m2
05:31 48.6 °F 44.8 °F 29.9 in Calm     87% 0 in 0 W/m2
05:36 48.4 °F 44.8 °F 29.9 in Calm     87% 0 in 0 W/m2
05:41 48.4 °F 45 °F 29.9 in Calm     88% 0 in 0 W/m2
05:46 48.2 °F 44.8 °F 29.9 in Calm     88% 0 in 0 W/m2
05:51 48 °F 44.6 °F 29.9 in Calm     88% 0 in 0 W/m2
05:56 48 °F 44.6 °F 29.9 in Calm     88% 0 in 0 W/m2
06:01 47.8 °F 44.4 °F 29.9 in Calm     88% 0 in 0 W/m2
06:06 47.8 °F 44.4 °F 29.9 in Calm     88% 0 in 0 W/m2
06:11 47.7 °F 44.2 °F 29.9 in Calm     88% 0 in 0 W/m2
06:16 47.7 °F 44.2 °F 29.9 in Calm     88% 0 in 0 W/m2
06:22 47.7 °F 44.2 °F 29.9 in Calm     88% 0 in 0 W/m2
06:27 47.5 °F 44.1 °F 29.9 in Calm     88% 0 in 0 W/m2
06:32 47.5 °F 44.1 °F 29.9 in Calm     88% 0 in 0 W/m2
06:37 47.5 °F 44.1 °F 29.9 in Calm     88% 0 in 0 W/m2
06:42 47.5 °F 44.1 °F 29.9 in Calm     88% 0 in 0 W/m2
06:47 47.5 °F 44.1 °F 29.9 in Calm     88% 0 in 0 W/m2
06:52 47.3 °F 43.9 °F 29.9 in Calm     88% 0 in 0 W/m2
06:57 47.1 °F 43.7 °F 29.9 in Calm     88% 0 in 5 W/m2
07:02 47.1 °F 43.7 °F 29.9 in Calm     88% 0 in 7 W/m2
07:07 47.1 °F 43.7 °F 29.9 in Calm     88% 0 in 11 W/m2
07:12 47.1 °F 43.7 °F 29.9 in Calm     88% 0 in 12 W/m2
07:17 47.1 °F 43.7 °F 29.9 in Calm     88% 0 in 18 W/m2
07:22 47.1 °F 43.7 °F 29.9 in Calm     88% 0 in 23 W/m2
07:27 47.1 °F 43.7 °F 29.9 in Calm     88% 0 in 28 W/m2
07:33 47.1 °F 43.7 °F 29.9 in Calm     88% 0 in 37 W/m2
07:38 47.3 °F 43.9 °F 29.9 in Calm     88% 0 in 40 W/m2
07:43 47.7 °F 44.2 °F 29.9 in Calm     88% 0 in 44 W/m2
07:48 47.8 °F 44.4 °F 29.9 in Calm     88% 0 in 47 W/m2
07:53 48 °F 44.6 °F 29.9 in Calm   1 mph 88% 0 in 49 W/m2
07:58 48.7 °F 45 °F 29.9 in SSW 0.9 mph 3 mph 87% 0 in 86 W/m2
08:03 49.1 °F 45.1 °F 29.9 in Calm   1 mph 86% 0 in 74 W/m2
08:08 49.5 °F 45.5 °F 29.9 in Calm   3 mph 86% 0 in 91 W/m2
08:13 50 °F 45.3 °F 29.9 in WNW 0.9 mph 3 mph 84% 0 in 63 W/m2
08:18 50.5 °F 45.5 °F 29.9 in WNW 2 mph 2 mph 83% 0 in 65 W/m2
08:23 50.7 °F 45.5 °F 29.9 in Calm   3 mph 82% 0 in 77 W/m2
08:28 51.1 °F 46 °F 29.9 in Calm   1 mph 83% 0 in 76 W/m2
08:33 51.4 °F 46.4 °F 29.9 in SSE 2 mph 2 mph 83% 0 in 81 W/m2
08:38 51.6 °F 46.2 °F 29.9 in ESE 0.9 mph 2 mph 82% 0 in 93 W/m2
08:43 51.8 °F 46.4 °F 29.9 in ESE 0.9 mph 1 mph 82% 0 in 107 W/m2
08:48 52.3 °F 46.8 °F 29.9 in SSW 2 mph 2 mph 81% 0 in 95 W/m2
08:53 52.3 °F 46.8 °F 29.9 in ESE 2 mph 2 mph 81% 0 in 111 W/m2
08:58 52.5 °F 46.9 °F 29.9 in Calm   1 mph 81% 0 in 118 W/m2
09:03 52.5 °F 46.9 °F 29.9 in Calm     81% 0 in 132 W/m2
09:08 52.9 °F 47.3 °F 29.9 in ESE 0.9 mph 2 mph 81% 0 in 163 W/m2
09:13 53.1 °F 47.1 °F 29.9 in Calm   1 mph 80% 0 in 258 W/m2
09:18 53.2 °F 46.9 °F 29.9 in Calm     79% 0 in 107 W/m2
09:23 53.4 °F 46.8 °F 29.9 in Calm   1 mph 78% 0 in 113 W/m2
09:28 53.8 °F 47.1 °F 29.9 in ESE 0.9 mph 1 mph 78% 0 in 127 W/m2
09:33 54.1 °F 47.1 °F 29.9 in ESE 0.9 mph 1 mph 77% 0 in 341 W/m2
09:38 54.7 °F 47.3 °F 29.9 in Calm   1 mph 76% 0 in 383 W/m2
09:43 55.4 °F 47.7 °F 29.9 in Calm   2 mph 75% 0 in 125 W/m2
09:49 55.9 °F 47.8 °F 30 in Calm   1 mph 74% 0 in 327 W/m2
09:54 56.5 °F 48.4 °F 30 in Calm   2 mph 74% 0 in 401 W/m2
09:59 56.8 °F 47.1 °F 30 in North 2 mph 2 mph 70% 0 in 411 W/m2
10:04 57.7 °F 47.7 °F 30 in WNW 2.9 mph 4 mph 69% 0 in 446 W/m2
10:09 57.7 °F 48 °F 30 in Calm   1 mph 70% 0 in 471 W/m2
10:14 58.3 °F 48.2 °F 30 in NNW 0.9 mph 2 mph 69% 0 in 172 W/m2
10:19 58.6 °F 48.6 °F 30 in West 2.9 mph 3 mph 69% 0 in 499 W/m2
10:24 59 °F 48.4 °F 30 in NW 0.9 mph 1 mph 68% 0 in 515 W/m2
10:29 59.5 °F 48.2 °F 30 in WNW 4 mph 4 mph 66% 0 in 265 W/m2
10:34 59.7 °F 47.5 °F 30 in Calm   3 mph 64% 0 in 265 W/m2
10:39 60.1 °F 47.8 °F 30 in Calm   4 mph 64% 0 in 621 W/m2
10:44 60.4 °F 48.6 °F 30 in West 0.9 mph 2 mph 65% 0 in 617 W/m2
10:49 61.7 °F 48.9 °F 30 in East 0.9 mph 1 mph 63% 0 in 520 W/m2
10:54 62.4 °F 48.4 °F 30 in NW 2 mph 3 mph 60% 0 in 633 W/m2
10:59 63 °F 48 °F 30 in NNW 0.9 mph 3 mph 58% 0 in 691 W/m2
11:04 63.3 °F 48.4 °F 30 in ESE 6.9 mph 7 mph 58% 0 in 373 W/m2
11:09 63.1 °F 47.1 °F 30 in WNW 0.9 mph 6 mph 56% 0 in 186 W/m2
11:14 62.6 °F 47.7 °F 30 in ENE 4 mph 5 mph 58% 0 in 146 W/m2
11:19 62.1 °F 48 °F 30 in ESE 0.9 mph 5 mph 60% 0 in 137 W/m2
11:24 61.5 °F 49.3 °F 30 in NE 2 mph 5 mph 64% 0 in 153 W/m2
11:29 61 °F 49.5 °F 30 in NNW 0.9 mph 3 mph 66% 0 in 214 W/m2
11:34 60.6 °F 49.6 °F 30 in West 2 mph 2 mph 67% 0 in 288 W/m2
11:39 60.6 °F 49.3 °F 30 in ENE 2 mph 9 mph 66% 0 in 388 W/m2
11:44 60.8 °F 48.9 °F 30 in NE 6 mph 6 mph 65% 0 in 403 W/m2
11:49 60.8 °F 48.9 °F 30 in ESE 2 mph 4 mph 65% 0 in 267 W/m2
11:54 60.8 °F 48.9 °F 30 in ESE 0.9 mph 4 mph 65% 0 in 357 W/m2
11:59 61.3 °F 49.5 °F 30 in NW 2.9 mph 9 mph 65% 0 in 735 W/m2
12:04 61.5 °F 48.7 °F 30 in NE 2 mph 8 mph 63% 0 in 292 W/m2
12:09 61.3 °F 49.1 °F 30 in North 2.9 mph 9 mph 64% 0 in 279 W/m2
12:14 61.3 °F 49.1 °F 30 in East 2.9 mph 6 mph 64% 0 in 272 W/m2
12:19 61.5 °F 49.3 °F 30 in NE 4 mph 6 mph 64% 0 in 283 W/m2
12:24 61.5 °F 49.6 °F 30 in ESE 2 mph 3 mph 65% 0 in 323 W/m2
12:29 61.5 °F 49.6 °F 30 in ESE 2 mph 4 mph 65% 0 in 404 W/m2
12:34 61.7 °F 50.2 °F 30 in ESE 0.9 mph 4 mph 66% 0 in 352 W/m2
12:39 61.5 °F 49.6 °F 30 in ENE 2 mph 3 mph 65% 0 in 360 W/m2
12:44 61.7 °F 49.8 °F 30 in ENE 4 mph 4 mph 65% 0 in 338 W/m2
12:49 61.9 °F 50 °F 30 in NNW 0.9 mph 5 mph 65% 0 in 311 W/m2
12:54 62.1 °F 49.8 °F 30 in West 4 mph 9 mph 64% 0 in 183 W/m2
12:59 61.5 °F 48.7 °F 30 in Calm   8 mph 63% 0 in 197 W/m2
13:04 61.3 °F 49.5 °F 30 in North 2 mph 9 mph 65% 0 in 257 W/m2
13:09 61.3 °F 50.4 °F 30 in NE 2 mph 7 mph 67% 0 in 334 W/m2
13:14 61.5 °F 50.5 °F 30 in ENE 0.9 mph 6 mph 67% 0 in 236 W/m2
13:19 61.3 °F 49.8 °F 30 in NW 4 mph 7 mph 66% 0 in 221 W/m2
13:24 61 °F 50 °F 30 in ESE 4 mph 10 mph 67% 0 in 287 W/m2
13:29 60.6 °F 50 °F 30 in WSW 4.9 mph 9 mph 68% 0 in 570 W/m2
13:34 61.2 °F 49.6 °F 30 in SE 2 mph 9 mph 66% 0 in 784 W/m2
13:39 61 °F 49.5 °F 30 in SE 2 mph 7 mph 66% 0 in 248 W/m2
13:44 60.6 °F 49.6 °F 30 in North 4.9 mph 13 mph 67% 0 in 385 W/m2
13:49 60.6 °F 49.6 °F 30 in ESE 4 mph 10 mph 67% 0 in 327 W/m2
13:54 60.3 °F 48.9 °F 30 in SE 4 mph 14 mph 66% 0 in 253 W/m2
13:59 60.1 °F 48.2 °F 30 in WNW 6.9 mph 13 mph 65% 0 in 185 W/m2
14:04 59.4 °F 48.4 °F 30 in North 0.9 mph 14 mph 67% 0 in 185 W/m2
14:09 59.2 °F 48.6 °F 30 in ENE 0.9 mph 7 mph 68% 0 in 295 W/m2
14:14 59.5 °F 48.6 °F 30 in ESE 2 mph 4 mph 67% 0 in 612 W/m2
14:19 60.4 °F 48.2 °F 30 in ESE 6.9 mph 12 mph 64% 0 in 394 W/m2
14:24 60.3 °F 47.7 °F 30 in North 2 mph 5 mph 63% 0 in 258 W/m2
14:29 60.1 °F 46.9 °F 30 in ESE 4.9 mph 9 mph 62% 0 in 271 W/m2
14:34 59.7 °F 45.9 °F 30 in SE 4.9 mph 7 mph 60% 0 in 244 W/m2
14:39 59.4 °F 46.4 °F 30 in West 2 mph 9 mph 62% 0 in 230 W/m2
14:44 59.2 °F 46.2 °F 30 in NNW 2.9 mph 11 mph 62% 0 in 236 W/m2
14:50 59.2 °F 46.2 °F 30 in East 4 mph 11 mph 62% 0 in 311 W/m2
14:55 59.4 °F 46.4 °F 30 in NNE 2.9 mph 11 mph 62% 0 in 234 W/m2
15:00 59.5 °F 45.1 °F 30 in East 10.1 mph 15 mph 59% 0 in 213 W/m2
15:05 59.2 °F 45.7 °F 30 in NNE 4 mph 8 mph 61% 0 in 234 W/m2
15:10 59.2 °F 45.3 °F 30 in NNW 2 mph 15 mph 60% 0 in 278 W/m2
15:15 59.2 °F 45.3 °F 30 in ENE 4 mph 9 mph 60% 0 in 396 W/m2
15:20 59.4 °F 45.5 °F 30 in WNW 0.9 mph 10 mph 60% 0 in 364 W/m2
15:25 59.7 °F 46.2 °F 30 in WSW 10.1 mph 11 mph 61% 0 in 311 W/m2
15:30 59.9 °F 45.5 °F 30 in West 2.9 mph 8 mph 59% 0 in 628 W/m2
15:35 59.5 °F 44.8 °F 30 in North 2.9 mph 13 mph 58% 0 in 561 W/m2
15:40 59.4 °F 45 °F 30 in NE 6 mph 14 mph 59% 0 in 582 W/m2
15:45 59 °F 44.8 °F 30 in SSE 2.9 mph 14 mph 59% 0 in 559 W/m2
15:50 58.5 °F 45.1 °F 30 in SE 4 mph 7 mph 61% 0 in 575 W/m2
15:55 58.6 °F 44.8 °F 30 in East 4 mph 11 mph 60% 0 in 497 W/m2
16:00 57.9 °F 44.1 °F 30 in North 4.9 mph 13 mph 60% 0 in 253 W/m2
16:05 57.6 °F 44.2 °F 30 in SSE 4 mph 13 mph 61% 0 in 594 W/m2
16:10 57.4 °F 44.4 °F 30 in East 8.1 mph 9 mph 62% 0 in 561 W/m2
16:15 56.8 °F 43.9 °F 30 in WNW 8.1 mph 11 mph 62% 0 in 524 W/m2
16:20 56.5 °F 44.1 °F 30 in NW 6 mph 12 mph 63% 0 in 497 W/m2
16:25 55.9 °F 43.5 °F 30 in South 6 mph 12 mph 63% 0 in 485 W/m2
16:31 55.2 °F 43.3 °F 30 in East 4 mph 12 mph 64% 0 in 533 W/m2
16:36 54.9 °F 43 °F 30 in NNW 8.9 mph 14 mph 64% 0 in 475 W/m2
16:41 54.9 °F 43 °F 30 in SE 2.9 mph 8 mph 64% 0 in 446 W/m2
16:46 55 °F 42.6 °F 30 in NW 2 mph 14 mph 63% 0 in 466 W/m2
16:51 54.7 °F 42.3 °F 30 in West 8.1 mph 10 mph 63% 0 in 448 W/m2
16:56 54.7 °F 42.3 °F 30 in West 4 mph 11 mph 63% 0 in 438 W/m2
17:01 54.7 °F 41.9 °F 30 in NNW 8.1 mph 15 mph 62% 0 in 424 W/m2
17:06 54.3 °F 41.5 °F 30 in ESE 2 mph 8 mph 62% 0 in 410 W/m2
17:11 54.7 °F 41 °F 30 in ESE 6 mph 13 mph 60% 0 in 424 W/m2
17:16 54.5 °F 40.8 °F 30 in ESE 4 mph 8 mph 60% 0 in 450 W/m2
17:21 54.3 °F 40.8 °F 30 in NE 13 mph 13 mph 60% 0 in 348 W/m2
17:26 54 °F 40.5 °F 30 in NNW 2.9 mph 8 mph 60% 0 in 285 W/m2
17:31 53.2 °F 39.2 °F 30 in NNW 8.9 mph 9 mph 59% 0 in 225 W/m2
17:36 52.7 °F 39.2 °F 30 in ENE 2 mph 12 mph 60% 0 in 190 W/m2
17:41 52.2 °F 39.2 °F 30 in East 10.1 mph 14 mph 61% 0 in 197 W/m2
17:46 52 °F 39 °F 30.1 in ENE 4.9 mph 14 mph 61% 0 in 178 W/m2
17:51 51.6 °F 38.7 °F 30 in SW 2.9 mph 17 mph 61% 0 in 367 W/m2
17:56 52.2 °F 39.6 °F 30 in SSE 2 mph 5 mph 62% 0 in 308 W/m2
18:01 52.7 °F 39.2 °F 30 in NW 0.9 mph 10 mph 60% 0 in 371 W/m2
18:06 53.2 °F 39.2 °F 30 in South 2.9 mph 12 mph 59% 0 in 227 W/m2
18:11 53.1 °F 38.7 °F 30 in SE 4 mph 8 mph 58% 0 in 153 W/m2
18:16 53.1 °F 38.3 °F 30.1 in WNW 0.9 mph 8 mph 57% 0 in 264 W/m2
18:21 53.2 °F 37 °F 30.1 in North 4 mph 8 mph 54% 0 in 237 W/m2
18:26 53.1 °F 36.9 °F 30.1 in North 4 mph 11 mph 54% 0 in 118 W/m2
18:31 52.7 °F 36.5 °F 30.1 in ESE 4 mph 14 mph 54% 0 in 272 W/m2
18:36 52.7 °F 36.5 °F 30.1 in West 4 mph 11 mph 54% 0 in 221 W/m2
18:41 52.9 °F 36.1 °F 30.1 in NW 2.9 mph 14 mph 53% 0 in 197 W/m2
18:46 52.9 °F 35.2 °F 30.1 in NNE 4 mph 8 mph 51% 0 in 179 W/m2
18:51 52.7 °F 35.6 °F 30.1 in WNW 4.9 mph 12 mph 52% 0 in 165 W/m2
18:56 52.3 °F 34.7 °F 30.1 in NNE 8.9 mph 9 mph 51% 0 in 158 W/m2
19:01 52.5 °F 34.9 °F 30.1 in East 2.9 mph 6 mph 51% 0 in 144 W/m2
19:06 52.5 °F 34.3 °F 30.1 in NE 6.9 mph 11 mph 50% 0 in 128 W/m2
19:11 52.3 °F 33.8 °F 30.1 in NNW 4 mph 4 mph 49% 0 in 116 W/m2
19:16 52.3 °F 33.8 °F 30.1 in West 2.9 mph 11 mph 49% 0 in 102 W/m2
19:21 52.2 °F 33.1 °F 30.1 in East 4 mph 7 mph 48% 0 in 91 W/m2
19:26 52 °F 33.4 °F 30.1 in NNW 2.9 mph 10 mph 49% 0 in 81 W/m2
19:31 51.8 °F 33.8 °F 30.1 in SSE 0.9 mph 7 mph 50% 0 in 67 W/m2
19:36 51.8 °F 33.3 °F 30.1 in NW 2.9 mph 6 mph 49% 0 in 56 W/m2
19:41 51.6 °F 33.6 °F 30.1 in NNW 2 mph 7 mph 50% 0 in 47 W/m2
19:46 51.4 °F 33.4 °F 30.1 in East 2.9 mph 8 mph 50% 0 in 39 W/m2
19:51 51.3 °F 33.3 °F 30.1 in NE 4 mph 6 mph 50% 0 in 25 W/m2
19:56 50.9 °F 33.4 °F 30.1 in ENE 2.9 mph 4 mph 51% 0 in 21 W/m2
20:01 50.5 °F 33.1 °F 30.1 in NNW 2 mph 5 mph 51% 0 in 18 W/m2
20:06 50.4 °F 32.9 °F 30.1 in Calm   4 mph 51% 0 in 16 W/m2
20:11 50.2 °F 32.7 °F 30.1 in NNW 0.9 mph 3 mph 51% 0 in 12 W/m2
20:16 49.8 °F 32.4 °F 30.1 in NNE 2.9 mph 8 mph 51% 0 in 9 W/m2
20:21 49.6 °F 32.7 °F 30.1 in WSW 2.9 mph 3 mph 52% 0 in 7 W/m2
20:26 49.5 °F 32 °F 30.1 in NNE 2 mph 10 mph 51% 0 in 5 W/m2
20:31 49.3 °F 31.5 °F 30.1 in NNE 2.9 mph 3 mph 50% 0 in 0 W/m2
20:36 49.1 °F 31.3 °F 30.1 in ENE 2 mph 10 mph 50% 0 in 0 W/m2
20:41 48.9 °F 31.6 °F 30.1 in WNW 0.9 mph 3 mph 51% 0 in 0 W/m2
20:46 48.7 °F 31.5 °F 30.1 in SW 2.9 mph 10 mph 51% 0 in 0 W/m2
20:51 48.6 °F 31.8 °F 30.1 in NNW 6 mph 6 mph 52% 0 in 0 W/m2
20:56 48.4 °F 31.6 °F 30.1 in WNW 0.9 mph 5 mph 52% 0 in 0 W/m2
21:01 48 °F 31.3 °F 30.1 in NE 2 mph 4 mph 52% 0 in 0 W/m2
21:07 47.8 °F 31.5 °F 30.1 in East 4 mph 5 mph 53% 0 in 0 W/m2
21:12 47.7 °F 31.3 °F 30.1 in SE 0.9 mph 4 mph 53% 0 in 0 W/m2
21:17 47.5 °F 31.3 °F 30.1 in North 8.1 mph 8 mph 53% 0 in 0 W/m2
21:22 47.1 °F 30.9 °F 30.1 in NNE 2 mph 3 mph 53% 0 in 0 W/m2
21:27 46.9 °F 30.7 °F 30.1 in NW 2 mph 10 mph 53% 0 in 0 W/m2
21:32 46.8 °F 30.6 °F 30.1 in NW 2 mph 2 mph 53% 0 in 0 W/m2
21:37 46.6 °F 30.4 °F 30.1 in NNW 0.9 mph 3 mph 53% 0 in 0 W/m2
21:42 46.6 °F 30.4 °F 30.1 in West 2.9 mph 3 mph 53% 0 in 0 W/m2
21:47 46.2 °F 30 °F 30.1 in North 4 mph 6 mph 53% 0 in 0 W/m2
21:52 46 °F 29.5 °F 30.1 in Calm   9 mph 52% 0 in 0 W/m2
21:57 46 °F 29.8 °F 30.1 in NW 2 mph 10 mph 53% 0 in 0 W/m2
22:02 45.9 °F 29.7 °F 30.1 in NNE 2.9 mph 5 mph 53% 0 in 0 W/m2
22:07 45.7 °F 30 °F 30.1 in WNW 2 mph 10 mph 54% 0 in 0 W/m2
22:12 45.5 °F 29.8 °F 30.1 in NNW 4 mph 6 mph 54% 0 in 0 W/m2
22:17 45.3 °F 29.7 °F 30.2 in NNW 2 mph 3 mph 54% 0 in 0 W/m2
22:22 45.1 °F 30 °F 30.2 in NNE 2 mph 4 mph 55% 0 in 0 W/m2
22:27 45 °F 29.8 °F 30.2 in NNE 2.9 mph 5 mph 55% 0 in 0 W/m2
22:32 45 °F 29.8 °F 30.2 in NNE 0.9 mph 5 mph 55% 0 in 0 W/m2
22:38 44.8 °F 30 °F 30.2 in West 0.9 mph 3 mph 56% 0 in 0 W/m2
22:43 44.4 °F 29.7 °F 30.2 in North 4.9 mph 5 mph 56% 0 in 0 W/m2
22:48 44.4 °F 30.2 °F 30.2 in NE 2 mph 4 mph 57% 0 in 0 W/m2
22:53 44.2 °F 30 °F 30.2 in NNE 2 mph 5 mph 57% 0 in 0 W/m2
22:58 44.1 °F 29.8 °F 30.2 in WSW 0.9 mph 3 mph 57% 0 in 0 W/m2
23:03 44.1 °F 29.8 °F 30.2 in NE 0.9 mph 4 mph 57% 0 in 0 W/m2
23:08 43.9 °F 29.7 °F 30.2 in NNW 2.9 mph 3 mph 57% 0 in 0 W/m2
23:13 43.5 °F 29.7 °F 30.2 in WSW 2 mph 3 mph 58% 0 in 0 W/m2
23:18 43.5 °F 29.7 °F 30.2 in NNW 2 mph 9 mph 58% 0 in 0 W/m2
23:23 43.5 °F 29.7 °F 30.2 in Calm   2 mph 58% 0 in 0 W/m2
23:28 43.3 °F 29.5 °F 30.2 in WNW 2 mph 3 mph 58% 0 in 0 W/m2
23:33 43.2 °F 29.3 °F 30.2 in West 0.9 mph 3 mph 58% 0 in 0 W/m2
23:38 43.2 °F 29.3 °F 30.2 in Calm   6 mph 58% 0 in 0 W/m2
23:43 43.2 °F 29.3 °F 30.2 in NW 6 mph 6 mph 58% 0 in 0 W/m2
23:48 43.2 °F 29.3 °F 30.2 in Calm   2 mph 58% 0 in 0 W/m2
23:53 43 °F 29.3 °F 30.2 in SW 4 mph 4 mph 58% 0 in 0 W/m2
23:59 42.8 °F 29.1 °F 30.2 in WSW 0.9 mph 2 mph 58% 0 in 0 W/m2
Juneau County Weather
Compliments of Weather Underground - 2 mb